GW2156 Weather Reports


Display with metric or nautical units.
time (UTC)temp
F
wind
direction
speed
MPH
gust
MPH
rain 1hr
in
rain 24hr
in
rain mn
in
humidity
%
barometer
mb
20260502221049 52 124 6.0 9.0 0.01 0.20 0.20 100 1011.6
20260502220049 52 119 8.0 9.0 0.01 0.20 0.20 100 1011.6
20260502215049 52 129 6.0 8.0 0.01 0.20 0.20 100 1011.6
20260502214049 52 139 5.0 7.0 0.01 0.20 0.20 100 1011.7
20260502213109 52 148 6.0 7.0 0.00 0.19 0.19 100 1011.7
20260502212049 52 143 5.0 7.0 0.00 0.19 0.19 100 1011.7
20260502211108 52 152 4.0 6.0 0.00 0.19 0.19 100 1011.7
20260502210048 52 152 3.0 5.0 0.00 0.19 0.19 100 1011.8
20260502205049 52 150 4.0 6.0 0.01 0.19 0.19 100 1011.8
20260502204048 52 155 4.0 6.0 0.01 0.19 0.19 100 1011.8
20260502203048 52 154 4.0 6.0 0.02 0.19 0.19 100 1011.8
20260502202048 52 158 4.0 6.0 0.02 0.19 0.19 100 1011.8
20260502201048 52 156 6.0 9.0 0.03 0.19 0.19 100 1011.8
20260502200048 52 157 4.0 8.0 0.05 0.19 0.19 100 1011.8
20260502195108 52 164 4.0 8.0 0.05 0.18 0.18 100 1011.8
20260502194048 52 155 6.0 9.0 0.06 0.18 0.18 100 1011.8
20260502193048 52 151 6.0 9.0 0.06 0.17 0.17 100 1011.8
20260502192048 52 166 4.0 8.0 0.07 0.17 0.17 100 1011.8
20260502191048 52 160 5.0 9.0 0.07 0.16 0.16 100 1011.8
20260502190048 52 151 7.0 9.0 0.06 0.14 0.14 100 1011.8
20260502185048 52 160 4.0 7.0 0.07 0.14 0.14 100 1011.9
20260502184048 53 152 8.0 11.0 0.06 0.12 0.12 100 1012.0
20260502183048 52 147 7.0 9.0 0.06 0.11 0.11 100 1012.0
20260502182048 52 151 7.0 9.0 0.05 0.10 0.10 100 1012.0
20260502181108 53 151 7.0 10.0 0.05 0.09 0.09 100 1012.0
20260502164127 53 129 6.0 8.0 0.01 0.04 0.04 100 1012.3
20260502163047 53 135 5.0 8.0 0.02 0.04 0.04 100 1012.4
20260502162047 53 139 5.0 7.0 0.02 0.04 0.04 100 1012.4
20260502161108 53 133 4.0 6.0 0.02 0.04 0.04 100 1012.5
20260502152047 54 163 4.0 7.0 0.01 0.02 0.02 100 1012.9
20260502151107 54 164 4.0 6.0 0.00 0.02 0.02 100 1013.1
20260502140107 54 208 4.0 7.0 0.02 0.02 0.02 100 1013.8
20260502130107 54 194 5.0 8.0 0.00 0.00 0.00 100 1014.2
20260502123106 54 184 5.0 9.0 0.00 0.00 0.00 100 1014.6
20260502122046 54 189 6.0 10.0 0.00 0.00 0.00 100 1014.7
20260502121046 54 184 6.0 12.0 0.00 0.00 0.00 100 1014.7
20260502115046 54 187 6.0 10.0 0.00 0.00 0.00 100 1014.9
20260502114047 54 185 6.0 10.0 0.00 0.00 0.00 100 1015.0
20260502113046 54 192 7.0 11.0 0.00 0.00 0.00 100 1015.0
20260502112046 54 198 8.0 14.0 0.00 0.00 0.00 100 1015.1
20260502111106 54 198 8.0 12.0 0.00 0.00 0.00 100 1015.0
20260502110046 54 198 7.0 11.0 0.00 0.00 0.00 100 1015.0
20260502105050 54 207 8.0 14.0 0.00 0.00 0.00 100 1015.0
20260502104110 54 193 6.0 10.0 0.00 0.00 0.00 100 1014.9
20260502103050 54 173 5.0 8.0 0.00 0.00 0.00 100 1014.9
20260502102049 54 190 5.0 9.0 0.00 0.00 0.00 100 1014.8
20260502101050 54 194 5.0 11.0 0.00 0.00 0.00 100 1015.0
20260502091050 54 201 7.0 12.0 0.00 0.00 0.00 100 1015.6
20260502090109 54 200 7.0 11.0 0.00 0.00 0.00 100 1015.7
20260502071049 52 203 6.0 9.0 0.00 0.00 0.00 100 1015.9
20260502070049 52 201 6.0 11.0 0.00 0.00 0.00 100 1016.0
20260502065049 52 201 7.0 11.0 0.00 0.00 0.00 100 1015.9
20260502064109 52 202 6.0 11.0 0.00 0.00 0.00 100 1015.9
20260502063049 52 203 6.0 8.0 0.00 0.00 0.00 100 1015.9
20260502062049 52 206 4.0 7.0 0.00 0.00 0.00 100 1015.9
20260502061049 52 194 3.0 6.0 0.00 0.00 0.00 100 1015.9
20260502060049 52 199 2.0 4.0 0.00 0.00 0.00 100 1015.9
20260502055109 52 208 4.0 5.0 0.00 0.00 0.00 100 1015.9
20260502054049 52 196 2.0 3.0 0.00 0.00 0.00 100 1015.9
20260502053048 52 237 3.0 4.0 0.00 0.00 0.00 100 1015.9
20260502052049 52 210 3.0 5.0 0.00 0.00 0.00 100 1015.9
20260502051048 52 212 4.0 7.0 0.00 0.00 0.00 100 1016.0
20260502050049 52 222 4.0 6.0 0.00 0.00 0.00 100 1016.0
20260502045036 52 205 5.0 8.0 0.00 0.00 0.00 100 1016.0
20260502044036 52 203 4.0 7.0 0.00 0.00 0.00 100 1016.0
20260502043035 52 200 4.0 7.0 0.00 0.00 0.00 100 1016.1
20260502042055 52 200 4.0 7.0 0.00 0.00 0.00 100 1016.1
20260502041035 52 210 5.0 8.0 0.00 0.00 0.00 100 1016.2
20260502040036 52 210 4.0 6.0 0.00 0.00 0.00 100 1016.3
20260502035035 52 213 6.0 11.0 0.00 0.00 0.00 100 1016.3
20260502034035 52 204 6.0 10.0 0.00 0.00 0.00 100 1016.4
20260502033035 52 207 5.0 7.0 0.00 0.00 0.00 100 1016.5
20260502032035 52 194 4.0 6.0 0.00 0.00 0.00 100 1016.6
20260502031035 52 184 3.0 4.0 0.00 0.00 0.00 100 1016.6
20260502030035 52 176 2.0 4.0 0.00 0.00 0.00 100 1016.7
20260502025035 52 163 3.0 5.0 0.00 0.00 0.00 100 1016.7
20260502024035 52 194 3.0 5.0 0.00 0.00 0.00 100 1016.8
20260502023035 52 181 2.0 4.0 0.00 0.00 0.00 100 1016.8
20260502022035 52 221 3.0 5.0 0.00 0.00 0.00 100 1016.9
20260502021035 52 239 3.0 4.0 0.00 0.00 0.00 100 1017.1
20260502020035 52 220 3.0 6.0 0.00 0.00 0.00 100 1017.3
20260502015035 52 213 5.0 9.0 0.00 0.00 0.00 100 1017.5
20260502014035 52 211 5.0 10.0 0.00 0.00 0.00 100 1017.6
20260502013054 52 210 7.0 11.0 0.00 0.00 0.00 100 1017.7
20260502012034 52 213 7.0 10.0 0.00 0.00 0.00 100 1017.8
20260502011034 52 220 7.0 11.0 0.00 0.00 0.00 100 1017.9
20260502010035 52 220 8.0 10.0 0.00 0.00 0.00 100 1018.0
20260502005034 52 215 7.0 11.0 0.00 0.00 0.00 100 1018.1
20260502004055 53 214 8.0 14.0 0.00 0.00 0.00 100 1018.1
20260502003035 53 197 5.0 9.0 0.00 0.00 0.00 100 1018.2
20260502002034 53 208 5.0 9.0 0.00 0.00 0.00 100 1018.2
20260502001034 53 201 6.0 10.0 0.00 0.00 0.00 100 1018.2
20260502000034 53 206 5.0 9.0 0.00 0.00 0.00 100 1018.3
20260501235036 53 200 5.0 8.0 0.00 0.00 0.00 100 1018.3
20260501234054 53 197 5.0 8.0 0.00 0.00 0.00 100 1018.3
20260501233034 53 195 5.0 9.0 0.00 0.00 0.00 100 1018.4
20260501232054 53 197 4.0 7.0 0.00 0.00 0.00 100 1018.4
20260501231034 53 207 6.0 8.0 0.00 0.00 0.00 100 1018.5
20260501230034 53 221 5.0 7.0 0.00 0.00 0.00 100 1018.6
20260501225034 53 220 6.0 10.0 0.00 0.00 0.00 100 1018.7
20260501224038 53 221 6.0 10.0 0.00 0.00 0.00 100 1018.7
20260501223038 53 221 8.0 11.0 0.00 0.00 0.00 100 1018.7
20260501222058 53 228 8.0 12.0 0.00 0.00 0.00 100 1018.7